This demonstration page uses our WeatherBlox Daily Observations layout. Learn more.

Left ArrowRight Arrow

Hourly Observations for December 13, 2020

Temp ( °F °C ) Dew Point ( °F °C ) Humidity (%) Winds ( mph kmh ) Pressure ( in mb ) Visibility ( mi km ) Precip ( " mm )
12:52 am 00:52 Cloudy 19 -7.2 17 -8.3 92 92 N 6 9 30.23 1024 10 16 0.00 0.00
1:52 am 01:52 Cloudy 19 -7.2 17 -8.3 92 92 NW 5 7 30.25 1024 10 16 0.00 0.00
2:33 am 02:33 Cloudy 20 -6.7 18 -7.8 92 92 Calm 30.31 1026 10 16 0.00 0.00
2:52 am 02:52 Cloudy 20 -6.7 18 -7.8 92 92 Calm 30.27 1025 10 16 0.00 0.00
3:52 am 03:52 Cloudy 20 -6.7 18 -7.8 92 92 NNW 5 7 30.28 1026 10 16 0.00 0.00
4:52 am 04:52 Mostly Cloudy 22 -5.6 19 -7.2 89 89 Calm 30.27 1025 10 16 0.00 0.00
5:52 am 05:52 Cloudy 23 -5 20 -6.7 88 88 Calm 30.25 1025 10 16 0.00 0.00
6:52 am 06:52 Cloudy 23 -5 21 -6.1 92 92 Calm 30.26 1025 10 16 0.00 0.00
7:52 am 07:52 Cloudy 25 -3.9 21 -6.1 85 85 W 6 9 30.28 1026 10 16 0.00 0.00
8:52 am 08:52 Cloudy 26 -3.3 21 -6.1 81 81 WNW 12 19 30.30 1026 10 16 0.00 0.00
9:52 am 09:52 Cloudy 26 -3.3 21 -6.1 81 81 WNW 10 17 30.32 1027 10 16 0.00 0.00
10:15 am 10:15 Cloudy 26 -3.3 21 -6.1 81 81 NW 12 19 30.35 1028 10 16 0.00 0.00
10:28 am 10:28 Cloudy 26 -3.3 21 -6.1 81 81 WNW 13 20 30.35 1028 10 16 0.00 0.00
10:52 am 10:52 Cloudy 26 -3.3 20 -6.7 78 78 WNW 10 17 30.32 1027 10 16 0.00 0.00
11:52 am 11:52 Cloudy 26 -3.3 20 -6.7 78 78 NW 12 19 30.30 1026 10 16 0.00 0.00
12:52 pm 12:52 Cloudy 26 -3.3 20 -6.7 78 78 NW 10 17 30.29 1026 10 16 0.00 0.00
1:40 pm 13:40 Cloudy 26 -3.3 21 -6.1 81 81 NW 9 15 30.32 1027 10 16 0.00 0.00
1:52 pm 13:52 Cloudy 26 -3.3 21 -6.1 81 81 WNW 8 13 30.28 1026 10 16 0.00 0.00
2:52 pm 14:52 Cloudy 26 -3.3 21 -6.1 81 81 W 9 15 30.27 1025 10 16 0.00 0.00
3:52 pm 15:52 Mostly Cloudy 27 -2.8 21 -6.1 78 78 W 6 9 30.27 1025 10 16 0.00 0.00
4:00 pm 16:00 Cloudy 27 -2.8 21 -6.1 78 78 W 8 13 30.29 1026 10 16 0.00 0.00
4:34 pm 16:34 Cloudy 27 -2.8 21 -6.1 78 78 WNW 6 9 30.30 1026 10 16 0.00 0.00
4:52 pm 16:52 Cloudy 27 -2.8 21 -6.1 78 78 WNW 7 11 30.28 1025 10 16 0.00 0.00
5:52 pm 17:52 Mostly Cloudy 25 -3.9 21 -6.1 85 85 WSW 5 7 30.28 1026 10 16 0.00 0.00
6:52 pm 18:52 Mostly Cloudy 24 -4.4 20 -6.7 84 84 Calm 30.29 1026 10 16 0.00 0.00
7:52 pm 19:52 Partly Cloudy 22 -5.6 19 -7.2 89 89 SSE 6 9 30.30 1026 10 16 0.00 0.00
8:52 pm 20:52 Partly Cloudy 19 -7.2 17 -8.3 92 92 VRB 3 6 30.31 1026 10 16 0.00 0.00
9:52 pm 21:52 Partly Cloudy 17 -8.3 15 -9.4 92 92 SSE 7 11 30.30 1026 10 16 0.00 0.00
10:52 pm 22:52 Clear 19 -7.2 16 -8.9 88 88 SE 5 7 30.31 1026 10 16 0.00 0.00
11:52 pm 23:52 Clear 18 -7.8 16 -8.9 92 92 NW 6 9 30.34 1027 10 16 0.00 0.00

Powered by AerisWeather